星链-1805 (STARLINK-1805 )

导读

STARLINK-1805是美国SpaceX公司星链互联网卫星项目中的一颗卫星,于2020年10月18日发射升空,是星链组网进程中的组成部分,旨在为全球提供低延迟、高速率的卫星互联网服务,该卫星运行在近地轨道,服务星链星座的全球覆盖目标。

基本信息
目录编号:
46705
目录名称:
STARLINK-1805
国际标识:
2020-073AM
轨道中心:
EARTH
卫星名称:
星链-1805
卫星全名:
星链-1805 (STARLINK-1805 )
卫星状态:
在轨 (已飞行2154 天)
发射日期:
2020-10-18 UTC
国别 :
美国 (US)
星等 :
--
轨道信息
数据来源 国际轨道数据
星历时间: 2026-09-10T23:51:10+0800
13小时前
查看轨道信息
半长轴: 6614.836km
偏心率: 0.000453
轨道倾角: 53.029°
近地点辐角 323.082°
升交点赤经 44.807°
平近点角 36.990°
近地点: 233.702km
远地点: 239.696km
周期: 89.236分钟
每日圈数: 16.137052
详细信息
固有亮度:
5
最大亮度:
2.5
卫星平台:
Starlink V1.0
覆盖范围:
全球
运营商:
太空探索技术公司
运营商所在国:
美国
制造商(研发单位):
太空探索技术公司
制造商所在国:
美国
使用方式:
暂无
卫星简介
星链(Starlink)计划是由太空探索技术公司(SpaceX)提出的一个巨型低轨卫星互联网星座项目,计划在2019年至2024年间在太空搭建由约1.2万颗卫星组成的“星链”网络,其中1584颗将部署在地球上空550千米处的近地轨道,并从2020年开始工作。该卫星仍在工作。
2D轨道图
3D轨道图
轨道高度分析图
轨道倾角分析图
轨道综合分析图
查看轨道综合分析图
与全量物体交会距离演化趋势
与全量物体交会风险概率演化趋势